Regional Weather Roundup
Issued by NWS Northern Indiana

Home | Current Version | Previous Version | Text Only | Print | Product List | Glossary On
Versions: 1 2 3 4 5 6 7 8 9 10 11 12 13 14 15 16 17 18 19 20 21 22 23 24 25 26 27 28 29 30 31 32 33 34 35 36 37 38 39 40 41 42 43 44 45 46 47 48 49 50
000
ASUS43 KIWX 241710
RWRIWX

KIWX WEATHER ROUNDUP
NATIONAL WEATHER SERVICE NORTHERN INDIANA
100 PM EDT THU APR 24 2014

NOTE: "FAIR" INDICATES FEW OR NO CLOUDS BELOW 12,000 FEET WITH NO
SIGNIFICANT WEATHER AND/OR OBSTRUCTIONS TO VISIBILITY.

* THESE STATIONS ARE NOT UNDER NWS QUALITY CONTROL. THEY ALSO MAY NOT
  REPORT WEATHER SUCH AS PRECIPITATION OR FOG.

INZ001>027-241800-
NORTHERN INDIANA

CITY           SKY/WX    TMP DP  RH WIND       PRES   REMARKS
GARY*          CLOUDY    61  32  33 SE17G36   29.93F
VALPARAISO     CLOUDY    58  28  32 SE22G28   29.95F
MICHIGAN CITY* CLOUDY    59  25  27 SE18G26   29.96F
LAPORTE*       CLOUDY    59  26  28 SE15G26   29.97F
SOUTH BEND     CLOUDY    60  23  24 SE23G31   30.00F
GOSHEN         PTSUNNY   59  23  25 SE21G30   30.01F
MONTICELLO*    PTSUNNY   59  32  35 SE14G23   29.96F
LOGANSPORT*    MOSUNNY   59  28  31 SE20      29.98F
ROCHESTER*     PTSUNNY   61  23  23 SE18G25   30.00F
WARSAW*        PTSUNNY   57  23  26 SE16G24   30.01F
ANGOLA*        MOSUNNY   54  25  32 SE16      30.06F
FORT WAYNE     PTSUNNY   57  22  25 SE18G25   30.05F
HUNTINGTON*    FAIR      58  24  26 E14G26    30.02F
PERU/GRISSOM   MOSUNNY   60  27  28 SE22      29.98F
MARION*        PTSUNNY   58  20  22 SE18G26   30.01F

$$
INZ028>050-241800-
CENTRAL INDIANA

CITY           SKY/WX    TMP DP  RH WIND       PRES   REMARKS
LAFAYETTE      MOSUNNY   60  34  37 SE15G22   29.94F
KOKOMO*        MOSUNNY   61  28  29 SE24G31   29.98F
MUNCIE*        MOSUNNY   58  21  24 SE18G26   30.01F
INDIANAPOLIS   PTSUNNY   59  35  40 E17G24    29.97F

$$
MIZ043>046-050>051-056>058-064>065-071>073-077>080-241800-
SOUTHWEST LOWER MICHIGAN

CITY           SKY/WX    TMP DP  RH WIND       PRES   REMARKS
BATTLE CREEK   PTSUNNY   52  20  28 SE13G21   30.06F
BENTON HARBOR  CLOUDY    56  29  35 SE23G30   29.98F
COLDWATER*     PTSUNNY   54  17  23 SE16G23   30.06F
HILLSDALE*     PTSUNNY   53  18  24 SE13G20   30.08F
HOLLAND        CLOUDY    57  27  31 SE20      30.02F
GRAND RAPIDS   PTSUNNY   55  29  36 SE20      30.05F
KALAMAZOO      PTSUNNY   55  24  30 SE13G23   30.04F
STURGIS*       PTSUNNY   55  27  33 SE17G24   30.03F
THREE RIVERS*  PTSUNNY   56  25  29 SE14G21   30.04F

$$
OHZ001>008-015>018-024>025-241800-
NORTHWEST OHIO

CITY           SKY/WX    TMP DP  RH WIND       PRES   REMARKS
WAUSEON*       FAIR      52  18  25 E14G21    30.10F
DEFIANCE       PTSUNNY   56  19  23 SE10G22   30.09F
FINDLAY        PTSUNNY   55  19  24 E13       30.08F
TOLEDO EXPRESS CLOUDY    52  17  25 SE9G16    30.11F
TOLEDO METCALF CLOUDY    54  20  26 E15       30.13F
LIMA           PTSUNNY   56  21  25 E12       30.07F

$$
&&



USA.gov is the U.S. government's official web portal to all federal, state and local government web resources and services.